User: anonymous   Login
Location: Donzy-le-Pr�
(47.3659°N, 3.1107°E)
Time: 15:55:21
(UTC+00:00)
Language:

Cosmos 1727 Rocket - Orbit

View from above orbital plane
View from above orbital plane
View from above satellite
View from above satellite

Ground track
Ground track

The orbit data is extracted from the following two-line orbital elements,

1 16511U 86008B   21131.87318563  .00000030  00000-0  15040-4 0  9992
2 16511  82.9455 243.3320 0022780 261.9331 220.2022 13.75795794771912
Epoch (UTC): 11 May 2021 20:57:23
Eccentricity: 0.0022780
inclination: 82.9455°
perigee height: 962 km
apogee height: 995 km
right ascension of ascending node: 243.3320°
argument of perigee: 261.9331°
revolutions per day: 13.75795794
mean anomaly at epoch: 220.2022°
orbit number at epoch: 77191

The dashed part of the orbit path shows where the satellite is in the earth's shadow,  

DLR